SCP
0 0 0 0 0 0 0 0 0 0 0 0 0 0 0 0 0 0 0 0 0 0 0 0 0 0 0 0 0 0 0 0 0 0 0 0 0 0 0 0 0 0 0
0 0 0 0 0 0 0 0 0 0 0 0 0 0 0 0 0 0 0 0 0 0 0 0 0 0 0 0 0 0 0 0 0 0 0 0 0 0 0 0 0 0 0
0 0 0 0 0 0 0 0 0 0 0 0 0 0 0 0 0 0 0 0 0 0 0 0 0 0 0 0 0 0 0 0 0 0 0 0 0 0 0 0 0 0 0
0 0 0 0 0 0 0 0 0 0 0 0 0 0 0 0 0 0 0 0 0 0 0 0 0 0 0 0 0 0 0 0 0 0 0 0 0 0 0 0 0 0 0
0 0 0 0 0 0 0 0 0 0 0 0 0 0 0 0 0 0 0 0 0 0 0 0 0 0 0 0 0 0 0 0 0 0 0 0 0 0 0 0 0 0 0
0 0 0 0 0 0 0 0 0 0 0 0 0 0 0 0 0 0 0 0 0 0 0 0 0 0 0 0 0 0 0 0 0 0 0 0 0 0 0 0 0 0 0
0 0 0 0 0 0 0 0 0 0 0 0 0 0 0 0 0 0 0 0 0 0 0 0 0 0 0 0 0 0 0 0 0 0 0 0 0 0 0 0 0 0 0
0 0 0 0 0 0 0 0 0 0 0 0 0 0 0 0 0 0 0 0 0 0 0 0 0 0 0 0 0 0 0 0 0 0 0 0 0 0 0 0 0 0 0
0 0 0 0 0 0 0 0 0 0 0 0 0 0 0 0 0 0 0 0 0 0 0 0 0 0 0 0 0 0 0 0 0 0 0 0 0 0 0 0 0 0 0
0 0 0 0 0 0 0 0 0 0 0 0 0 0 0 0 0 0 0 0 0 0 0 0 0 0 0 0 0 0 0 0 0 0 0 0 0 0 0 0 0 0 0
0 0 0 0 0 0 0 0 0 0 0 0 0 0 0 0 0 0 0 0 0 0 0 0 0 0 0 0 0 0 0 0 0 0 0 0 0 0 0 0 0 0 0
0 0 0 0 0 0 0 0 0 0 0 0 0 0 0 0 0 0 0 0 0 0 0 0 0 0 0 0 0 0 0 0 0 0 0 0 0 0 0 0 0 0 0
0 0 0 0 0 0 0 0 0 0 0 0 0 0 0 0 0 0 0 0 0 0 0 0 0 0 0 0 0 0 0 0 0 0 0 0 0 0 0 0 0 0 0
0 0 0 0 0 0 0 0 0 0 0 0 0 0 0 0 0 0 0 0 0 0 0 0 0 0 0 0 0 0 0 0 0 0 0 0 0 0 0 0 0 0 0
0 0 0 0 0 0 0 0 0 0 0 0 0 0 0 0 0 0 0 0 0 0 0 0 0 0 0 0 0 0 0 0 0 0 0 0 0 0 0 0 0 0 0
0 0 0 0 0 0 0 0 0 0 0 0 0 0 0 0 0 0 0 0 0 0 0 0 0 0 0 0 0 0 0 0 0 0 0 0 0 0 0 0 0 0 0
0 0 0 0 0 0 0 0 0 0 0 0 0 0 0 0 0 0 0 0 0 0 0 0 0 0 0 0 0 0 0 0 0 0 0 0 0 0 0 0 0 0 0
0 0 0 0 0 0 0 0 0 0 0 0 0 0 0 0 0 0 0 0 0 0 0 0 0 0 0 0 0 0 0 0 0 0 0 0 0 0 0 0 0 0 0
0 0 0 0 0 0 0 0 0 0 0 0 0 0 0 0 0 0 0 0 0 0 0 0 0 0 0 0 0 0 0 0 0 0 0 0 0 0 0 0 0 0 0
0 0 0 0 0 0 0 0 0 0 0 0 0 0 0 0 0 0 0 0 0 0 0 0 0 0 0 0 0 0 0 0 0 0 0 0 0 0 0 0 0 0 0
0 0 0 0 0 0 0 0 0 0 0 0 0 0 0 0 0 0 0 0 0 0 0 0 0 0 0 0 0 0 0 0 0 0 0 0 0 0 0 0 0 0 0
0 0 0 0 0 0 0 0 0 0 0 0 0 0 0 0 0 0 0 0 0 0 0 0 0 0 0 0 0 0 0 0 0 0 0 0 0 0 0 0 0 0 0
0 0 0 0 0 0 0 0 0 0 0 0 0 0 0 0 0 0 0 0 0 0 0 0 0 0 0 0 0 0 0 0 0 0 0 0 0 0 0 0 0 0 0
0 0 0 0 0 0 0 0 0 0 0 0 0 0 0 0 0 0 0 0 0 0 0 0 0 0 0 0 0 0 0 0 0 0 0 0 0 0 0 0 0 0 0
0 0 0 0 0 0 0 0 0 0 0 0 0 0 0 0 0 0 0 0 0 0 0 0 0 0 0 0 0 0 0 0 0 0 0 0 0 0 0 0 0 0 0
0 0 0 0 0 0 0 0 0 0 0 0 0 0 0 0 0 0 0 0 0 0 0 0 0 0 0 0 0 0 0 0 0 0 0 0 0 0 0 0 0 0 0
Wind_Speed
4 4 4 3 3 4 4 4 4 3 3 3 4 4 3 4 4 4 4 4 4 4 4 3 3 3 2 2 1 1 0 1 3 1 1 1 1 2 2 1 2 2 4
4 4 4 4 4 4 4 3 3 3 3 3 3 4 4 4 5 5 5 5 5 5 4 4 4 3 3 2 1 1 0 1 3 3 1 1 1 1 1 1 2 3 4
4 5 4 4 4 4 3 3 2 2 3 3 3 4 4 4 5 6 5 5 5 5 5 5 4 4 3 2 1 1 0 2 3 4 3 1 1 1 1 2 3 2 3
5 5 4 3 3 3 3 3 3 3 3 3 4 4 4 5 6 6 6 4 4 4 4 5 5 5 5 3 2 2 2 2 2 3 3 2 1 1 1 1 2 1 1
4 4 4 2 2 3 3 3 4 4 5 4 4 4 4 5 7 8 6 5 4 4 3 4 4 6 7 5 3 3 2 2 2 2 3 2 2 2 1 1 2 2 1
3 3 3 2 2 2 2 3 3 4 4 4 5 5 6 6 9 10 7 5 4 4 3 3 3 4 6 6 6 5 4 3 2 2 3 3 2 2 2 1 1 1 1
3 3 3 2 2 2 3 4 3 4 4 5 4 4 5 6 9 10 10 4 4 4 4 4 5 6 6 4 4 5 6 5 3 2 3 2 3 2 2 1 1 1 0
3 3 2 2 2 2 3 3 3 3 3 3 3 4 4 6 9 10 10 3 3 3 4 4 4 5 7 5 4 4 4 4 4 3 3 2 2 1 1 0 0 1 1
3 3 2 2 2 2 2 2 2 2 2 1 2 3 4 5 8 9 8 2 2 3 4 5 5 5 8 8 4 4 5 4 5 6 4 3 2 1 0 1 1 1 1
3 3 2 1 1 1 2 1 1 1 1 1 3 3 3 4 6 8 8 3 2 2 3 4 7 7 7 8 4 4 4 3 3 2 2 1 2 2 3 2 1 0 1
3 2 2 1 1 1 1 1 1 1 1 1 1 1 2 2 3 5 6 3 4 3 3 3 4 6 6 6 4 3 2 1 1 1 1 1 2 2 2 2 2 1 1
3 3 2 1 0 2 1 1 1 1 1 1 1 1 1 2 1 2 4 4 4 3 3 3 2 3 4 4 3 3 3 3 2 1 0 0 1 1 1 1 2 1 2
3 2 1 1 0 1 0 1 1 1 2 1 1 1 1 2 1 0 2 3 4 2 2 3 3 3 4 3 4 5 4 2 1 1 1 1 0 0 1 1 2 2 3
3 2 2 1 1 1 1 1 1 1 2 2 2 2 1 2 2 2 2 1 2 2 2 3 5 5 4 4 4 3 3 1 1 1 0 0 1 1 2 2 2 2 2
3 2 2 2 1 1 1 1 2 3 2 2 3 4 4 3 3 4 3 3 3 3 4 3 3 3 3 3 3 2 2 2 1 1 1 2 2 2 2 2 2 2 2
3 3 3 3 2 3 3 2 1 1 2 1 0 0 1 1 1 3 4 4 5 5 4 4 4 3 1 1 1 1 1 1 1 1 1 1 2 2 2 2 3 3 3
3 3 3 2 3 3 3 3 3 3 4 4 4 4 4 4 4 5 6 8 8 4 3 4 4 3 2 1 1 0 0 1 1 1 1 1 2 2 2 2 2 2 2
4 3 3 3 3 3 3 3 3 4 4 4 6 9 9 8 8 7 5 5 6 5 5 5 4 2 1 1 1 0 1 1 1 1 1 2 2 3 3 3 3 3 3
4 3 3 3 3 3 4 3 3 3 3 3 3 5 9 9 9 9 5 4 6 5 4 3 3 2 1 1 1 1 1 1 1 2 2 2 2 3 3 3 3 4 4
4 4 4 4 4 4 4 3 3 3 3 3 3 3 4 5 5 6 6 6 7 5 3 2 2 1 2 2 2 2 2 2 2 2 3 2 3 3 4 4 4 4 4
5 5 7 6 5 4 4 4 3 3 3 3 2 3 4 5 5 5 5 5 5 4 3 3 3 3 2 3 2 2 2 2 2 2 2 2 2 3 3 4 4 4 4
5 5 5 6 5 4 4 4 4 5 4 4 3 4 7 6 6 5 4 3 3 3 3 3 3 3 2 2 1 2 2 2 2 2 2 3 3 3 4 4 4 4 5
6 6 5 5 5 5 5 6 5 5 5 5 5 4 5 6 5 4 3 3 2 2 2 2 3 3 2 2 1 2 2 2 2 2 3 3 4 4 4 4 6 6 6
7 7 7 6 6 6 6 5 6 6 6 5 5 4 4 4 4 4 4 3 3 3 3 3 3 4 4 3 2 2 2 1 3 3 4 4 5 5 5 5 6 7 6
8 8 7 7 7 6 6 6 6 6 6 5 5 5 5 4 4 4 4 4 5 5 5 5 4 4 5 5 4 3 2 2 2 3 3 4 6 6 6 7 6 7 7
8 8 8 7 6 6 6 6 6 6 5 5 5 4 4 5 5 4 4 4 4 4 5 5 5 5 6 5 5 5 5 5 5 5 4 5 6 6 6 6 8 8 8
Wind_Direction
93 78 68 54 49 52 53 49 40 26 19 19 4 2 0 9 2 359 1 1 359 355 352 353 345 343 340 330 327 307 298 138 142 130 102 114 86 74 71 78 102 94 99
97 85 69 57 51 54 54 43 39 27 19 14 2 356 6 15 6 1 0 1 358 2 3 359 353 352 340 333 339 346 26 132 140 140 136 142 110 117 102 98 104 100 103
94 90 75 59 57 57 53 39 39 37 25 11 5 7 14 15 10 360 359 3 8 8 5 1 2 358 347 346 359 7 56 111 132 141 143 139 118 129 104 93 94 92 115
99 98 89 74 62 55 48 36 34 33 30 19 13 12 22 27 15 3 355 359 12 15 17 15 13 13 2 0 29 28 60 106 135 137 138 135 123 138 125 119 104 96 97
104 105 100 90 73 63 50 39 31 19 30 25 19 20 26 33 15 2 350 0 12 18 29 35 37 44 40 35 43 42 49 62 102 122 124 113 102 100 91 118 109 113 92
108 110 105 88 69 69 69 51 40 26 22 20 27 28 31 27 7 5 0 355 6 13 13 25 55 60 52 53 62 64 68 78 90 99 99 105 96 77 54 69 102 107 101
120 111 112 109 85 58 55 54 38 31 28 23 26 36 42 28 11 5 2 357 13 15 16 21 37 41 33 35 58 61 59 56 66 104 99 93 101 84 61 31 51 56 236
123 108 100 97 84 62 54 49 37 34 28 19 21 31 37 26 12 4 354 355 19 32 40 39 48 40 25 23 50 68 70 57 54 82 90 84 93 84 57 315 309 343 299
122 113 102 81 72 63 57 44 33 27 13 12 41 42 37 27 12 5 358 344 40 43 49 44 43 53 24 24 46 62 72 71 69 83 99 109 112 136 174 64 6 16 327
117 109 101 89 87 72 61 30 359 357 360 21 48 47 46 36 15 6 1 359 30 51 71 71 56 47 31 28 40 52 55 45 50 65 93 152 193 216 228 221 240 292 323
109 104 103 89 123 111 74 354 302 335 28 20 37 81 82 58 29 7 9 12 8 18 51 67 58 42 29 20 26 42 48 357 330 298 221 192 192 202 199 211 223 218 281
120 114 111 107 315 113 99 300 290 278 243 227 231 219 134 117 47 10 6 13 6 18 28 45 61 34 12 353 350 332 330 327 275 261 229 120 142 154 174 205 215 202 204
126 118 135 158 77 59 163 252 258 258 261 245 213 160 119 127 132 339 321 333 343 353 357 350 324 314 321 305 270 283 297 295 295 353 31 33 43 163 202 241 242 223 231
147 155 175 177 175 156 305 304 326 351 350 0 15 29 70 81 65 36 345 1 343 340 331 311 288 269 264 275 286 268 248 245 263 293 331 274 251 241 243 242 244 240 237
169 182 193 194 198 153 122 10 12 37 42 21 11 10 21 40 32 26 8 4 4 9 336 298 273 248 229 219 229 225 216 205 223 235 230 247 254 253 251 245 249 257 255
188 202 209 207 200 206 185 175 174 192 167 142 148 341 21 59 321 345 345 333 329 339 332 301 294 287 258 214 227 233 210 191 238 261 258 260 273 277 272 267 260 258 266
203 213 227 221 210 224 217 199 191 207 229 249 253 251 248 265 285 300 312 318 304 299 277 274 274 282 290 281 240 241 325 302 275 276 282 284 282 277 277 278 277 273 274
210 209 229 245 244 244 240 234 221 203 192 211 228 233 242 252 262 273 291 310 284 248 241 252 253 251 253 279 316 326 275 263 264 265 275 282 288 292 289 287 284 279 277
218 219 221 247 254 251 251 247 240 235 213 200 194 204 225 241 258 266 265 258 271 274 251 244 250 260 276 261 243 250 256 260 269 279 271 270 277 281 289 293 291 289 281
220 229 241 249 250 252 254 253 249 248 240 221 211 201 182 203 232 236 220 234 251 261 272 282 271 250 248 251 247 240 245 243 243 257 268 271 276 279 286 286 288 287 279
219 206 212 241 249 251 256 259 258 254 251 242 227 209 190 214 235 245 234 224 236 252 257 264 265 256 244 241 247 253 260 259 254 264 286 289 288 290 288 290 290 292 297
242 231 211 225 242 249 258 259 257 254 246 243 229 216 209 230 248 253 251 244 238 241 246 253 267 270 270 275 277 268 269 278 291 295 291 292 288 287 291 294 300 304 302
247 247 242 233 237 233 243 253 255 257 256 252 246 228 216 233 246 251 254 253 254 259 263 257 258 269 278 281 290 294 297 304 307 314 307 300 299 296 293 294 298 300 300
242 242 242 240 241 243 242 245 253 257 258 255 254 249 234 233 246 247 246 244 241 240 245 251 251 258 262 265 261 270 279 290 303 310 314 307 304 304 303 302 300 303 303
249 251 249 246 245 247 247 248 251 254 257 257 256 257 253 245 242 241 235 233 235 236 241 243 240 245 250 252 250 248 233 233 248 284 292 288 289 292 295 299 299 300 301
243 251 254 253 250 252 255 255 257 258 259 258 255 255 256 257 254 248 243 241 244 244 243 244 238 241 245 248 247 236 222 222 229 241 263 272 277 281 289 291 298 299 299